User: anonymous   Login
Location: Biharia
(46.4333°N, 22.8000°E)
Time: 18:06:27
(UTC+00:00)
Language:

Cosmos 1934 Rocket - Orbit

View from above orbital plane
View from above orbital plane
View from above satellite
View from above satellite

Ground track
Ground track

The orbit data is extracted from the following two-line orbital elements,

1 18986U 88023B   22019.52288620  .00000133  00000-0  11535-3 0  9995
2 18986  82.9525 235.6625 0041433 187.3097 172.7463 13.78657356701744
Epoch (UTC): 19 January 2022 12:32:57
Eccentricity: 0.0041433
inclination: 82.9525°
perigee height: 938 km
apogee height: 999 km
right ascension of ascending node: 235.6625°
argument of perigee: 187.3097°
revolutions per day: 13.78657356
mean anomaly at epoch: 172.7463°
orbit number at epoch: 70174

The dashed part of the orbit path shows where the satellite is in the earth's shadow,  

DLR